{"data":{"norad_id":66524,"epoch":"2026-09-20T09:00:27.249696Z","epoch_age_seconds":99980,"freshness":"FRESH","line1":"1 66524U 25265J   26263.37531539  .00010570  00000+0  39309-3 0  9997","line2":"2 66524  43.0034 258.8429 0001533 260.6977  99.3701 15.27578209 46887","mean_motion":15.27578209,"eccentricity":0.0001533,"inclination_deg":43.0034,"raan_deg":258.8429,"arg_perigee_deg":260.6977,"mean_anomaly_deg":99.3701,"bstar":0.00039309,"rev_number":4688,"period_min":94.266859236141,"perigee_km":482.00263829255,"apogee_km":484.10627959386,"semimajor_km":6861.1914589432,"source":"CELESTRAK","updated_at":"2026-09-21T09:00:35.964912Z"}}